Location: Aufkirchen
(47.9603°N, 11.3653°E)
Time: 21:12:15
(UTC+01:00)

ISS - Visible Passes

Search period start: 09 February 2026 00:00
Search period end: 19 February 2026 00:00
Orbit: 414 x 429 km, 51.6° (Epoch: 9 February)

Date Brightness Start Highest point End Pass type
(mag) Time Alt. Az. Time Alt. Az. Time Alt. Az.
12 Feb -1.0 06:20:20 10° S 06:22:44 19° SE 06:25:09 10° E visible
13 Feb -0.7 05:34:30 10° SSE 05:35:54 12° SE 05:37:20 10° ESE visible
14 Feb -2.6 06:22:02 10° SW 06:25:12 43° SSE 06:28:24 10° ENE visible
15 Feb -2.0 05:36:22 17° SSW 05:38:14 29° SE 05:41:11 10° E visible
16 Feb -1.4 04:51:33 19° SE 04:51:33 19° SE 04:53:47 10° E visible
16 Feb -3.8 06:24:33 11° WSW 06:27:48 89° NNW 06:31:08 10° ENE visible
17 Feb -3.6 05:39:35 37° SW 05:40:42 65° SSE 05:44:01 10° ENE visible
18 Feb -2.2 04:54:29 35° ESE 04:54:29 35° ESE 04:56:51 10° ENE visible
18 Feb -3.4 06:27:29 12° W 06:30:28 53° NNW 06:33:45 10° ENE visible
